Hourly Weather Ondjiwa

Today, 1 October, Thursday

Time Temperature Precipitation Wind Pressure Humidity
00:00 +20°C° 0 mm 4 mps 665 mmHg 22%
01:00 +18°C° 0 mm 3 mps 665 mmHg 26%
02:00 +17°C° 0 mm 3 mps 665 mmHg 28%
03:00 +16°C° 0 mm 2 mps 664 mmHg 30%
04:00 +15°C° 0 mm 2 mps 664 mmHg 32%
05:00 +16°C° 0 mm 1 mps 665 mmHg 30%
06:00 +18°C° 0 mm 1 mps 666 mmHg 27%
07:00 +20°C° 0 mm 1 mps 667 mmHg 24%
08:00 +24°C° 0 mm 1 mps 668 mmHg 19%
09:00 +28°C° 0 mm 1 mps 668 mmHg 13%
10:00 +31°C° 0 mm 1 mps 669 mmHg 7%
11:00 +34°C° 0 mm 2 mps 668 mmHg 7%
12:00 +36°C° 0 mm 2 mps 667 mmHg 6%
13:00 +37°C° 0 mm 2 mps 666 mmHg 6%
14:00 +37°C° 0 mm 3 mps 666 mmHg 6%
15:00 +37°C° 0 mm 3 mps 665 mmHg 7%
16:00 +37°C° 0 mm 3 mps 664 mmHg 7%
17:00 +34°C° 0 mm 3 mps 664 mmHg 9%
18:00 +31°C° 0 mm 3 mps 664 mmHg 10%
19:00 +28°C° 0 mm 2 mps 663 mmHg 12%
20:00 +27°C° 0 mm 3 mps 664 mmHg 12%
21:00 +26°C° 0 mm 4 mps 665 mmHg 13%
22:00 +25°C° 0 mm 4 mps 666 mmHg 13%
23:00 +22°C° 0 mm 4 mps 665 mmHg 14%

Tomorrow, 2 October, Friday

Time Temperature Precipitation Wind Pressure Humidity
00:00 +20°C° 0 mm 3 mps 665 mmHg 16%
01:00 +18°C° 0 mm 2 mps 665 mmHg 17%
02:00 +17°C° 0 mm 2 mps 665 mmHg 18%
03:00 +17°C° 0 mm 2 mps 665 mmHg 19%
04:00 +16°C° 0 mm 2 mps 665 mmHg 20%
05:00 +17°C° 0 mm 2 mps 665 mmHg 20%
06:00 +18°C° 0 mm 2 mps 666 mmHg 19%
07:00 +20°C° 0 mm 1 mps 667 mmHg 19%
08:00 +24°C° 0 mm 2 mps 668 mmHg 16%
09:00 +28°C° 0 mm 2 mps 668 mmHg 12%
10:00 +31°C° 0 mm 2 mps 669 mmHg 9%
11:00 +34°C° 0 mm 2 mps 668 mmHg 8%
12:00 +36°C° 0 mm 2 mps 668 mmHg 8%
13:00 +38°C° 0 mm 2 mps 667 mmHg 8%
14:00 +38°C° 0 mm 2 mps 666 mmHg 8%
15:00 +37°C° 0 mm 2 mps 666 mmHg 9%
16:00 +37°C° 0 mm 2 mps 665 mmHg 9%
17:00 +35°C° 0 mm 2 mps 665 mmHg 11%
18:00 +31°C° 0 mm 2 mps 665 mmHg 13%
19:00 +28°C° 0 mm 2 mps 665 mmHg 15%
20:00 +27°C° 0 mm 3 mps 665 mmHg 15%
21:00 +26°C° 0 mm 4 mps 666 mmHg 14%
22:00 +25°C° 0 mm 5 mps 666 mmHg 13%
23:00 +22°C° 0 mm 4 mps 666 mmHg 15%

Day after tomorrow, 3 October, Saturday

Time Temperature Precipitation Wind Pressure Humidity
00:00 +20°C° 0 mm 2 mps 665 mmHg 16%
01:00 +19°C° 0 mm 1 mps 665 mmHg 18%
02:00 +19°C° 0 mm 1 mps 665 mmHg 19%
03:00 +18°C° 0 mm 1 mps 665 mmHg 20%
04:00 +16°C° 0 mm 1 mps 665 mmHg 21%
05:00 +19°C° 0 mm 1 mps 666 mmHg 20%
06:00 +20°C° 0 mm 1 mps 667 mmHg 19%
07:00 +21°C° 0 mm 1 mps 668 mmHg 17%
08:00 +25°C° 0 mm 1 mps 668 mmHg 14%
09:00 +29°C° 0 mm 1 mps 669 mmHg 11%
10:00 +33°C° 0 mm 1 mps 670 mmHg 8%
11:00 +34°C° 0 mm 1 mps 669 mmHg 7%
12:00 +37°C° 0 mm 2 mps 668 mmHg 7%
13:00 +39°C° 0 mm 2 mps 668 mmHg 6%
14:00 +39°C° 0 mm 2 mps 667 mmHg 7%
15:00 +38°C° 0 mm 2 mps 666 mmHg 7%
16:00 +38°C° 0 mm 2 mps 666 mmHg 8%
17:00 +35°C° 0 mm 2 mps 666 mmHg 9%
18:00 +33°C° 0 mm 3 mps 666 mmHg 11%
19:00 +29°C° 0 mm 3 mps 665 mmHg 13%
20:00 +28°C° 0 mm 3 mps 666 mmHg 13%
21:00 +28°C° 0 mm 3 mps 666 mmHg 13%
22:00 +27°C° 0 mm 3 mps 667 mmHg 14%
23:00 +25°C° 0 mm 3 mps 667 mmHg 13%

4 October, Sunday

Time Temperature Precipitation Wind Pressure Humidity
00:00 +24°C° 0 mm 3 mps 666 mmHg 12%
01:00 +21°C° 0 mm 3 mps 666 mmHg 11%
02:00 +20°C° 0 mm 2 mps 666 mmHg 13%
03:00 +19°C° 0 mm 1 mps 666 mmHg 16%
04:00 +16°C° 0 mm 0 mps 665 mmHg 19%
05:00 +19°C° 0 mm 1 mps 666 mmHg 18%
06:00 +20°C° 0 mm 1 mps 667 mmHg 17%
07:00 +22°C° 0 mm 1 mps 668 mmHg 17%
08:00 +26°C° 0 mm 2 mps 668 mmHg 14%
09:00 +30°C° 0 mm 2 mps 669 mmHg 10%
10:00 +35°C° 0 mm 3 mps 669 mmHg 7%
11:00 +36°C° 0 mm 3 mps 669 mmHg 7%
12:00 +38°C° 0 mm 3 mps 668 mmHg 7%
13:00 +40°C° 0 mm 3 mps 667 mmHg 6%
14:00 +40°C° 0 mm 3 mps 667 mmHg 6%
15:00 +40°C° 0 mm 3 mps 666 mmHg 6%
16:00 +40°C° 0 mm 3 mps 666 mmHg 6%
17:00 +37°C° 0 mm 3 mps 666 mmHg 8%
18:00 +34°C° 0 mm 3 mps 665 mmHg 10%
19:00 +30°C° 0 mm 3 mps 665 mmHg 12%
20:00 +29°C° 0 mm 4 mps 666 mmHg 12%
21:00 +29°C° 0 mm 5 mps 666 mmHg 13%
22:00 +28°C° 0 mm 5 mps 666 mmHg 14%
23:00 +26°C° 0 mm 5 mps 666 mmHg 17%

5 October, Monday

Time Temperature Precipitation Wind Pressure Humidity
00:00 +23°C° 0 mm 4 mps 666 mmHg 20%
01:00 +21°C° 0 mm 3 mps 665 mmHg 22%
02:00 +20°C° 0 mm 3 mps 665 mmHg 22%
03:00 +19°C° 0 mm 2 mps 665 mmHg 22%
04:00 +18°C° 0 mm 2 mps 665 mmHg 22%
05:00 +19°C° 0 mm 2 mps 666 mmHg 19%
06:00 +20°C° 0 mm 2 mps 667 mmHg 17%
07:00 +21°C° 0 mm 2 mps 667 mmHg 15%
08:00 +27°C° 0 mm 2 mps 668 mmHg 13%
09:00 +31°C° 0 mm 3 mps 668 mmHg 10%
10:00 +36°C° 0 mm 4 mps 669 mmHg 8%
11:00 +37°C° 0 mm 4 mps 668 mmHg 8%
12:00 +40°C° 0 mm 4 mps 667 mmHg 8%
13:00 +42°C° 0 mm 4 mps 667 mmHg 8%
14:00 +42°C° 0 mm 3 mps 666 mmHg 8%
15:00 +42°C° 0 mm 3 mps 665 mmHg 8%
16:00 +41°C° 0 mm 2 mps 665 mmHg 9%
17:00 +38°C° 0 mm 3 mps 665 mmHg 11%
18:00 +35°C° 0 mm 3 mps 664 mmHg 13%
19:00 +31°C° 0 mm 3 mps 664 mmHg 14%
20:00 +30°C° 0 mm 4 mps 665 mmHg 15%
21:00 +30°C° 0 mm 5 mps 665 mmHg 15%
22:00 +29°C° 0 mm 7 mps 666 mmHg 15%
23:00 +27°C° 0 mm 6 mps 666 mmHg 17%

6 October, Tuesday

Time Temperature Precipitation Wind Pressure Humidity
00:00 +25°C° 0 mm 5 mps 665 mmHg 20%
01:00 +22°C° 0 mm 4 mps 665 mmHg 22%
02:00 +21°C° 0 mm 3 mps 665 mmHg 23%
03:00 +20°C° 0 mm 2 mps 665 mmHg 25%
04:00 +19°C° 0 mm 1 mps 665 mmHg 26%
05:00 +21°C° 0 mm 1 mps 665 mmHg 25%
06:00 +22°C° 0 mm 1 mps 666 mmHg 23%
07:00 +23°C° 0 mm 1 mps 666 mmHg 21%
08:00 +27°C° 0 mm 2 mps 667 mmHg 18%
09:00 +31°C° 0 mm 2 mps 667 mmHg 15%
10:00 +36°C° 0 mm 2 mps 668 mmHg 11%
11:00 +37°C° 0 mm 3 mps 667 mmHg 10%
12:00 +39°C° 0 mm 3 mps 667 mmHg 9%
13:00 +42°C° 0 mm 4 mps 666 mmHg 8%
14:00 +42°C° 0 mm 4 mps 665 mmHg 8%
15:00 +42°C° 0 mm 3 mps 665 mmHg 8%
16:00 +42°C° 0 mm 3 mps 664 mmHg 8%
17:00 +38°C° 0 mm 3 mps 664 mmHg 10%
18:00 +35°C° 0 mm 3 mps 664 mmHg 12%
19:00 +31°C° 0 mm 3 mps 664 mmHg 13%
20:00 +30°C° 0 mm 4 mps 664 mmHg 14%
21:00 +30°C° 0 mm 5 mps 665 mmHg 14%
22:00 +29°C° 0 mm 6 mps 666 mmHg 14%
23:00 +27°C° 0 mm 5 mps 665 mmHg 18%
Show more

We Need Your Consent

Meteoprog and our Service Providers may store and access personal data such as cookies, device identifiers or other similar technologies on your device and process such data to personalise content and ads, as well as provide social media features and to analyse the traffic.

  • Store and/or access information on your device

    Cookies, device identifiers or other information can be stored or accessed on your device for the purposes indicated above.

  • Personalised ads and content, ad and content measurement, audience insights, and products development

    Ads and content can be personalised based on a profile. More data can be added to better personalise ads and content. Ad and content performance can be measured. Insights about the audience who saw the ads and content can be derived. Such data can be used to develop or improve user’s experience, systems and software.

By clicking ‘I Agree’ you will allow the use of indicated cookies, device identifiers, web beacons or other similar technologies. Your settings can be changed in the browser on your device.

For certain purposes, legitimate interests may be relied on, rather than consent. You can read more about this in our Privacy and Cookie Policy.